Flag for Taiwan Weather past 2 weeks in Taipei, Taiwan

Now
84 °F

Passing clouds.


Feels Like: 92 °F
Forecast: 77 / 83 °F
Wind: 5 mph from Northwest

Location: Sungshan / Taipei

Current Time: May 31, 2015 at 1:37:35 AM

Latest Report: May 31, 2015 at 1:00 AM


Visibility: N/A

Pressure: 29.74 "Hg

Humidity: 74%

Dew point: 75 °F

Location of TaipeiLocation

Historic Weather in Taipei — Graph

°F

Taipei temperature yesterday

Maximum temperature yesterday: 97 °F (at 1:00 PM)
Minimum temperature yesterday: 81 °F (at 5:00 AM)
Average temperature yesterday: 89 °F

Past Weeks' High & Low Weather Summary

 TemperatureHumidityPressure
High97 °F (May 30, 1:00 PM)100% (May 20, 8:00 PM)29.98 "Hg (May 20, 8:00 PM)
Low70 °F (May 21, 6:30 AM)34% (May 19, 11:00 AM)29.56 "Hg (May 28, 4:00 PM)
Average81 °F74%29.76 "Hg
* Reported Midnight between May 15 and May 16 — Midnight between May 30 and May 31, Taipei, Weather by CustomWeather, © 2015

Note: Actual official high and low records may vary slightly from our data, if they occured in-between our weather recording intervals... More about our weather records

Advertising

Taipei weather history for previous 24 hours

 ConditionsComfort  
Time TempWeatherWind HumidityBarometerVisibility
12:00 AM
Sun, May 31
86 °FPartly cloudy.7 mph70%29.74 "HgN/A
11:30 PM
Sat, May 30
84 °FPartly cloudy.7 mph74%29.74 "HgN/A
11:00 PM84 °FPartly cloudy.7 mph74%29.74 "HgN/A
10:30 PM84 °FPassing clouds.7 mph79%29.77 "HgN/A
10:00 PM86 °FPassing clouds.7 mph75%29.77 "HgN/A
9:30 PM86 °FPassing clouds.7 mph75%29.74 "HgN/A
9:00 PM86 °FPassing clouds.7 mph70%29.74 "HgN/A
8:30 PM88 °FPassing clouds.5 mph66%29.71 "HgN/A
8:00 PM88 °FPassing clouds.5 mph66%29.71 "HgN/A
7:30 PM88 °FPassing clouds.8 mph66%29.68 "HgN/A
7:00 PM90 °FPassing clouds.7 mph59%29.65 "HgN/A
6:52 PM90 °FPassing clouds.8 mph59%29.65 "HgN/A
6:30 PM90 °FPartly sunny.14 mph52%29.65 "HgN/A
6:00 PM90 °FPartly sunny.13 mph52%29.62 "HgN/A
5:30 PM91 °FPartly sunny.16 mph49%29.62 "HgN/A
5:00 PM91 °FPartly sunny.18 mph49%29.62 "HgN/A
4:30 PM91 °FBroken clouds.17 mph49%29.65 "HgN/A
4:00 PM91 °FBroken clouds.17 mph49%29.65 "HgN/A
3:30 PM91 °FBroken clouds.14 mph52%29.65 "HgN/A
3:00 PM93 °FBroken clouds.14 mph49%29.65 "HgN/A
2:30 PM91 °FPartly sunny.13 mph52%29.65 "HgN/A
2:00 PM93 °FPartly sunny.17 mph49%29.65 "HgN/A
1:30 PM97 °FBroken clouds.17 mph42%29.65 "HgN/A
1:00 PM97 °FPartly sunny.17 mph44%29.65 "HgN/A
12:49 PM95 °FBroken clouds.18 mph47%29.65 "HgN/A
12:30 PM95 °FBroken clouds.20 mph47%29.68 "HgN/A
12:00 PM95 °FPartly sunny.22 mph47%29.68 "HgN/A
11:30 AM95 °FPartly sunny.17 mph47%29.68 "HgN/A
11:00 AM93 °FPartly sunny.16 mph49%29.71 "HgN/A
10:54 AM93 °FScattered clouds.16 mph49%29.71 "HgN/A
10:30 AM95 °FScattered clouds.15 mph44%29.71 "HgN/A
10:00 AM93 °FScattered clouds.13 mph49%29.71 "HgN/A
9:30 AM91 °FScattered clouds.10 mph56%29.71 "HgN/A
9:00 AM90 °FScattered clouds.16 mph55%29.71 "HgN/A
8:30 AM90 °FScattered clouds.13 mph59%29.71 "HgN/A
8:00 AM88 °FScattered clouds.14 mph62%29.74 "HgN/A
7:30 AM84 °FPartly sunny.13 mph66%29.74 "HgN/A
7:03 AM84 °FScattered clouds.9 mph66%29.74 "HgN/A
6:30 AM84 °FScattered clouds.6 mph70%29.71 "HgN/A
6:00 AM82 °FPassing clouds.5 mph74%29.71 "HgN/A
5:00 AM81 °FPassing clouds.2 mph74%29.68 "HgN/A
4:00 AM82 °FPassing clouds.3 mph74%29.68 "HgN/A
3:00 AM82 °FPassing clouds.3 mph74%29.68 "HgN/A
2:00 AM84 °FPassing clouds.5 mph74%29.71 "HgN/A
1:00 AM82 °FPassing clouds.5 mph74%29.71 "HgN/A
Weather by CustomWeather, © 2015

See weather overviewHow to use our weather pages